sat.trackr.live / text

‹ back to catalog

STARLINK-2112

NORAD 47391 · 2021-005AU

PAYLOAD ACTIVE UNKNOWN

§ Identity

Operator
Country
US
Launch date
2021-01-20
Launch site
AFETR
Launch vehicle
Mass (kg)
RCS (m²)

Purposes: comms

External: N2YO · Heavens-Above · Gunter

§ Orbital elements

Epoch: 2026-09-14T23:00:08.309664Z

Period
95.02 min
Inclination
53.0654°
Eccentricity
0.0002179
Mean motion
15.15456800 rev/d
Perigee alt
518.1 km
Apogee alt
521.1 km
Semi-major
6,897.7 km
B*
1.1335e-3
RAAN
255.3503°
Arg perigee
56.4979°
Mean anomaly
303.6222°
Rev number
31,208

§ Raw data

STARLINK-21121 47391U 21005AU  26257.95842951  .00021452  00000+0  11335-2 0  99952 47391  53.0654 255.3503 0002179  56.4979 303.6222 15.15456800312088

JSON: /api/v1/satellites/47391 · /tle

For live sub-satellite position, see the globe view (requires WebGL).

§ Visibility from observer

Set your observer location to see the next 7 days of passes ≥ 10°. The values pass through the URL so the page stays shareable.

No JS? Fill the form by hand. The geolocation button needs JavaScript.